Year,Month,Day,Hour,Minute,Value (Times are PST for windspeed in km/hr)
2008,10,07,00,00,5.20
2008,10,07,00,01,6.20
2008,10,07,00,02,4.60
2008,10,07,00,03,5.60
2008,10,07,00,04,3.00
2008,10,07,00,05,0.90
2008,10,07,00,06,2.90
2008,10,07,00,07,3.90
2008,10,07,00,08,7.80
2008,10,07,00,09,7.60
2008,10,07,00,10,9.00
2008,10,07,00,11,6.50
2008,10,07,00,12,11.30
2008,10,07,00,13,9.20
2008,10,07,00,14,8.60
2008,10,07,00,15,6.50
2008,10,07,00,16,14.60
2008,10,07,00,17,14.30
2008,10,07,00,18,18.50
2008,10,07,00,19,22.00
2008,10,07,00,20,18.70
2008,10,07,00,21,31.00
2008,10,07,00,22,35.70
2008,10,07,00,23,24.00
2008,10,07,00,24,32.00
2008,10,07,00,25,42.50
2008,10,07,00,26,30.10
2008,10,07,00,27,45.00
2008,10,07,00,28,36.20
2008,10,07,00,29,33.70
2008,10,07,00,30,33.70
2008,10,07,00,31,22.10
2008,10,07,00,32,21.40
2008,10,07,00,33,36.30
2008,10,07,00,34,28.20
2008,10,07,00,35,17.00
2008,10,07,00,36,28.90
2008,10,07,00,37,23.30
2008,10,07,00,38,23.70
2008,10,07,00,39,27.80
2008,10,07,00,40,30.50
2008,10,07,00,41,30.40
2008,10,07,00,42,24.60
2008,10,07,00,43,26.90
2008,10,07,00,44,27.50
2008,10,07,00,45,29.10
2008,10,07,00,46,23.20
2008,10,07,00,47,29.70
2008,10,07,00,48,33.00
2008,10,07,00,49,25.60
2008,10,07,00,50,23.20
2008,10,07,00,51,26.60
2008,10,07,00,52,20.40
2008,10,07,00,53,25.30
2008,10,07,00,54,29.00
2008,10,07,00,55,34.00
2008,10,07,00,56,32.70
2008,10,07,00,57,25.50
2008,10,07,00,58,28.40
2008,10,07,00,59,23.20
2008,10,07,01,00,23.20
2008,10,07,01,01,29.50
2008,10,07,01,02,37.50
2008,10,07,01,03,32.30
2008,10,07,01,04,34.60
2008,10,07,01,05,27.50
2008,10,07,01,06,30.10
2008,10,07,01,07,29.70
2008,10,07,01,08,26.10
2008,10,07,01,09,27.70
2008,10,07,01,10,25.40
2008,10,07,01,11,20.70
2008,10,07,01,12,26.00
2008,10,07,01,13,15.50
2008,10,07,01,14,25.60
2008,10,07,01,15,23.50
2008,10,07,01,16,23.30
2008,10,07,01,17,19.00
2008,10,07,01,18,15.10
2008,10,07,01,19,21.00
2008,10,07,01,20,31.10
2008,10,07,01,21,26.10
2008,10,07,01,22,28.50
2008,10,07,01,23,23.70
2008,10,07,01,24,20.80
2008,10,07,01,25,20.30
2008,10,07,01,26,24.10
2008,10,07,01,27,32.00
2008,10,07,01,28,22.60
2008,10,07,01,29,21.60
2008,10,07,01,30,27.60
2008,10,07,01,31,30.70
2008,10,07,01,32,32.30
2008,10,07,01,33,32.00
2008,10,07,01,34,27.80
2008,10,07,01,35,26.40
2008,10,07,01,36,25.70
2008,10,07,01,37,31.10
2008,10,07,01,38,34.90
2008,10,07,01,39,22.50
2008,10,07,01,40,21.70
2008,10,07,01,41,29.30
2008,10,07,01,42,24.50
2008,10,07,01,43,32.10
2008,10,07,01,44,20.70
2008,10,07,01,45,30.10
2008,10,07,01,46,25.80
2008,10,07,01,47,34.40
2008,10,07,01,48,40.20
2008,10,07,01,49,34.10
2008,10,07,01,50,26.40
2008,10,07,01,51,24.90
2008,10,07,01,52,30.00
2008,10,07,01,53,34.00
2008,10,07,01,54,28.20
2008,10,07,01,55,32.30
2008,10,07,01,56,34.80
2008,10,07,01,57,23.50
2008,10,07,01,58,28.70
2008,10,07,01,59,28.60
2008,10,07,02,00,37.20
2008,10,07,02,01,33.00
2008,10,07,02,02,41.60
2008,10,07,02,03,41.70
2008,10,07,02,04,31.80
2008,10,07,02,05,37.40
2008,10,07,02,06,39.80
2008,10,07,02,07,33.70
2008,10,07,02,08,33.90
2008,10,07,02,09,44.70
2008,10,07,02,10,28.90
2008,10,07,02,11,33.80
2008,10,07,02,12,36.90
2008,10,07,02,13,45.60
2008,10,07,02,14,33.50
2008,10,07,02,15,34.50
2008,10,07,02,16,41.20
2008,10,07,02,17,40.00
2008,10,07,02,18,44.00
2008,10,07,02,19,34.60
2008,10,07,02,20,37.80
2008,10,07,02,21,36.00
2008,10,07,02,22,42.10
2008,10,07,02,23,41.20
2008,10,07,02,24,35.50
2008,10,07,02,25,36.70
2008,10,07,02,26,27.60
2008,10,07,02,27,38.30
2008,10,07,02,28,28.30
2008,10,07,02,29,35.50
2008,10,07,02,30,38.90
2008,10,07,02,31,43.40
2008,10,07,02,32,39.20
2008,10,07,02,33,35.70
2008,10,07,02,34,37.60
2008,10,07,02,35,43.30
2008,10,07,02,36,36.20
2008,10,07,02,37,28.10
2008,10,07,02,38,26.00
2008,10,07,02,39,31.50
2008,10,07,02,40,32.30
2008,10,07,02,41,30.70
2008,10,07,02,42,37.20
2008,10,07,02,43,27.40
2008,10,07,02,44,39.40
2008,10,07,02,45,38.40
2008,10,07,02,46,31.90
2008,10,07,02,47,31.20
2008,10,07,02,48,31.40
2008,10,07,02,49,32.10
2008,10,07,02,50,27.90
2008,10,07,02,51,30.50
2008,10,07,02,52,23.80
2008,10,07,02,53,32.90
2008,10,07,02,54,24.70
2008,10,07,02,55,28.00
2008,10,07,02,56,27.20
2008,10,07,02,57,30.90
2008,10,07,02,58,32.20
2008,10,07,02,59,25.80
2008,10,07,03,00,26.40
2008,10,07,03,01,26.50
2008,10,07,03,02,21.80
2008,10,07,03,03,30.00
2008,10,07,03,04,32.80
2008,10,07,03,05,28.90
2008,10,07,03,06,26.20
2008,10,07,03,07,37.40
2008,10,07,03,08,41.80
2008,10,07,03,09,23.60
2008,10,07,03,10,29.90
2008,10,07,03,11,32.40
2008,10,07,03,12,29.00
2008,10,07,03,13,36.30
2008,10,07,03,14,36.50
2008,10,07,03,15,30.80
2008,10,07,03,16,28.80
2008,10,07,03,17,39.70
2008,10,07,03,18,32.80
2008,10,07,03,19,24.10
2008,10,07,03,20,21.50
2008,10,07,03,21,33.50
2008,10,07,03,22,22.70
2008,10,07,03,23,25.60
2008,10,07,03,24,42.50
2008,10,07,03,25,23.20
2008,10,07,03,26,28.00
2008,10,07,03,27,31.10
2008,10,07,03,28,30.80
2008,10,07,03,29,37.50
2008,10,07,03,30,32.80
2008,10,07,03,31,28.50
2008,10,07,03,32,35.50
2008,10,07,03,33,36.90
2008,10,07,03,34,36.60
2008,10,07,03,35,30.20
2008,10,07,03,36,31.60
2008,10,07,03,37,33.70
2008,10,07,03,38,24.50
2008,10,07,03,39,23.10
2008,10,07,03,40,27.50
2008,10,07,03,41,39.70
2008,10,07,03,42,37.00
2008,10,07,03,43,31.40
2008,10,07,03,44,20.40
2008,10,07,03,45,17.50
2008,10,07,03,46,25.80
2008,10,07,03,47,20.00
2008,10,07,03,48,24.20
2008,10,07,03,49,26.40
2008,10,07,03,50,22.40
2008,10,07,03,51,21.60
2008,10,07,03,52,25.20
2008,10,07,03,53,20.80
2008,10,07,03,54,20.80
2008,10,07,03,55,17.50
2008,10,07,03,56,17.50
2008,10,07,03,57,19.70
2008,10,07,03,58,17.60
2008,10,07,03,59,20.00
2008,10,07,04,00,21.90
2008,10,07,04,01,25.70
2008,10,07,04,02,23.50
2008,10,07,04,03,19.90
2008,10,07,04,04,22.50
2008,10,07,04,05,20.10
2008,10,07,04,06,22.70
2008,10,07,04,07,16.40
2008,10,07,04,08,22.10
2008,10,07,04,09,21.10
2008,10,07,04,10,15.70
2008,10,07,04,11,29.30
2008,10,07,04,12,22.20
2008,10,07,04,13,21.70
2008,10,07,04,14,21.00
2008,10,07,04,15,20.30
2008,10,07,04,16,17.20
2008,10,07,04,17,30.60
2008,10,07,04,18,20.70
2008,10,07,04,19,22.70
2008,10,07,04,20,18.70
2008,10,07,04,21,23.30
2008,10,07,04,22,23.70
2008,10,07,04,23,25.50
2008,10,07,04,24,34.90
2008,10,07,04,25,28.30
2008,10,07,04,26,32.20
2008,10,07,04,27,38.00
2008,10,07,04,28,26.70
2008,10,07,04,29,25.70
2008,10,07,04,30,27.10
2008,10,07,04,31,22.90
2008,10,07,04,32,29.90
2008,10,07,04,33,25.70
2008,10,07,04,34,31.50
2008,10,07,04,35,31.60
2008,10,07,04,36,28.70
2008,10,07,04,37,26.40
2008,10,07,04,38,24.50
2008,10,07,04,39,25.60
2008,10,07,04,40,27.70
2008,10,07,04,41,33.20
2008,10,07,04,42,35.90
2008,10,07,04,43,26.70
2008,10,07,04,44,30.30
2008,10,07,04,45,32.70
2008,10,07,04,46,35.20
2008,10,07,04,47,23.70
2008,10,07,04,48,27.70
2008,10,07,04,49,28.60
2008,10,07,04,50,35.20
2008,10,07,04,51,24.70
2008,10,07,04,52,24.90
2008,10,07,04,53,26.00
2008,10,07,04,54,31.90
2008,10,07,04,55,31.20
2008,10,07,04,56,24.10
2008,10,07,04,57,25.40
2008,10,07,04,58,27.40
2008,10,07,04,59,26.60
2008,10,07,05,00,24.10
2008,10,07,05,01,27.70
2008,10,07,05,02,27.30
2008,10,07,05,03,21.20
2008,10,07,05,04,29.40
2008,10,07,05,05,24.30
2008,10,07,05,06,17.80
2008,10,07,05,07,16.50
2008,10,07,05,08,14.30
2008,10,07,05,09,22.50
2008,10,07,05,10,26.80
2008,10,07,05,11,23.90
2008,10,07,05,12,20.70
2008,10,07,05,13,20.30
2008,10,07,05,14,21.20
2008,10,07,05,15,20.80
2008,10,07,05,16,20.10
2008,10,07,05,17,17.40
2008,10,07,05,18,38.50
2008,10,07,05,19,36.50
2008,10,07,05,20,33.80
2008,10,07,05,21,41.50
2008,10,07,05,22,33.50
2008,10,07,05,23,27.60
2008,10,07,05,24,26.80
2008,10,07,05,25,28.30
2008,10,07,05,26,27.30
2008,10,07,05,27,23.40
2008,10,07,05,28,24.20
2008,10,07,05,29,26.00
2008,10,07,05,30,22.80
2008,10,07,05,31,22.00
2008,10,07,05,32,25.50
2008,10,07,05,33,22.30
2008,10,07,05,34,21.30
2008,10,07,05,35,17.20
2008,10,07,05,36,17.90
2008,10,07,05,37,21.50
2008,10,07,05,38,20.00
2008,10,07,05,39,20.00
2008,10,07,05,40,15.00
2008,10,07,05,41,20.80
2008,10,07,05,42,20.20
2008,10,07,05,43,14.90
2008,10,07,05,44,18.50
2008,10,07,05,45,22.50
2008,10,07,05,46,20.20
2008,10,07,05,47,18.60
2008,10,07,05,48,23.50
2008,10,07,05,49,34.50
2008,10,07,05,50,27.50
2008,10,07,05,51,26.30
2008,10,07,05,52,19.10
2008,10,07,05,53,23.90
2008,10,07,05,54,21.30
2008,10,07,05,55,33.80
2008,10,07,05,56,27.70
2008,10,07,05,57,21.60
2008,10,07,05,58,27.50
2008,10,07,05,59,23.70
2008,10,07,06,00,28.00
2008,10,07,06,01,25.20
2008,10,07,06,02,29.40
2008,10,07,06,03,29.80
2008,10,07,06,04,28.00
2008,10,07,06,05,20.70
2008,10,07,06,06,20.00
2008,10,07,06,07,25.60
2008,10,07,06,08,20.50
2008,10,07,06,09,16.20
2008,10,07,06,10,19.30
2008,10,07,06,11,19.50
2008,10,07,06,12,16.30
2008,10,07,06,13,18.80
2008,10,07,06,14,17.30
2008,10,07,06,15,21.50
2008,10,07,06,16,17.80
2008,10,07,06,17,24.80
2008,10,07,06,18,22.30
2008,10,07,06,19,25.70
2008,10,07,06,20,31.30
2008,10,07,06,21,29.30
2008,10,07,06,22,27.40
2008,10,07,06,23,27.90
2008,10,07,06,24,25.70
2008,10,07,06,25,24.80
2008,10,07,06,26,25.30
2008,10,07,06,27,24.60
2008,10,07,06,28,25.40
2008,10,07,06,29,27.80
2008,10,07,06,30,27.10
2008,10,07,06,31,21.30
2008,10,07,06,32,32.40
2008,10,07,06,33,25.70
2008,10,07,06,34,24.60
2008,10,07,06,35,24.00
2008,10,07,06,36,31.10
2008,10,07,06,37,18.60
2008,10,07,06,38,23.50
2008,10,07,06,39,16.70
2008,10,07,06,40,19.30
2008,10,07,06,41,12.30
2008,10,07,06,42,20.30
2008,10,07,06,43,21.40
2008,10,07,06,44,23.40
2008,10,07,06,45,23.90
2008,10,07,06,46,21.80
2008,10,07,06,47,16.40
2008,10,07,06,48,25.10
2008,10,07,06,49,11.70
2008,10,07,06,50,14.10
2008,10,07,06,51,19.50
2008,10,07,06,52,17.00
2008,10,07,06,53,12.90
2008,10,07,06,54,16.00
2008,10,07,06,55,19.70
2008,10,07,06,56,17.60
2008,10,07,06,57,17.60
2008,10,07,06,58,21.10
2008,10,07,06,59,15.70
2008,10,07,07,00,21.90
2008,10,07,07,01,23.50
2008,10,07,07,02,17.50
2008,10,07,07,03,16.50
2008,10,07,07,04,20.00
2008,10,07,07,05,21.80
2008,10,07,07,06,18.80
2008,10,07,07,07,16.70
2008,10,07,07,08,29.10
2008,10,07,07,09,19.60
2008,10,07,07,10,17.80
2008,10,07,07,11,15.80
2008,10,07,07,12,23.50
2008,10,07,07,13,20.10
2008,10,07,07,14,16.60
2008,10,07,07,15,20.40
2008,10,07,07,16,17.70
2008,10,07,07,17,16.60
2008,10,07,07,18,16.50
2008,10,07,07,19,23.10
2008,10,07,07,20,19.20
2008,10,07,07,21,16.70
2008,10,07,07,22,24.70
2008,10,07,07,23,17.90
2008,10,07,07,24,18.10
2008,10,07,07,25,20.60
2008,10,07,07,26,16.00
2008,10,07,07,27,15.70
2008,10,07,07,28,20.10
2008,10,07,07,29,15.60
2008,10,07,07,30,24.40
2008,10,07,07,31,22.50
2008,10,07,07,32,10.30
2008,10,07,07,33,24.10
2008,10,07,07,34,22.20
2008,10,07,07,35,20.50
2008,10,07,07,36,10.80
2008,10,07,07,37,19.80
2008,10,07,07,38,21.20
2008,10,07,07,39,12.40
2008,10,07,07,40,11.20
2008,10,07,07,41,16.10
2008,10,07,07,42,8.60
2008,10,07,07,43,12.20
2008,10,07,07,44,11.40
2008,10,07,07,45,10.70
2008,10,07,07,46,8.80
2008,10,07,07,47,26.40
2008,10,07,07,48,12.70
2008,10,07,07,49,14.10
2008,10,07,07,50,3.30
2008,10,07,07,51,15.10
2008,10,07,07,52,15.20
2008,10,07,07,53,10.00
2008,10,07,07,54,10.60
2008,10,07,07,55,9.80
2008,10,07,07,56,18.80
2008,10,07,07,57,8.80
2008,10,07,07,58,10.50
2008,10,07,07,59,9.50
2008,10,07,08,00,6.80
2008,10,07,08,01,7.20
2008,10,07,08,02,11.50
2008,10,07,08,03,7.30
2008,10,07,08,04,5.60
2008,10,07,08,05,3.40
2008,10,07,08,06,4.60
2008,10,07,08,07,12.70
2008,10,07,08,08,12.60
2008,10,07,08,09,16.60
2008,10,07,08,10,8.20
2008,10,07,08,11,7.20
2008,10,07,08,12,4.60
2008,10,07,08,13,9.90
2008,10,07,08,14,17.40
2008,10,07,08,15,14.80
2008,10,07,08,16,10.70
2008,10,07,08,17,9.10
2008,10,07,08,18,6.10
2008,10,07,08,19,3.20
2008,10,07,08,20,2.30
2008,10,07,08,21,4.10
2008,10,07,08,22,7.80
2008,10,07,08,23,11.30
2008,10,07,08,24,7.30
2008,10,07,08,25,8.80
2008,10,07,08,26,6.70
2008,10,07,08,27,6.90
2008,10,07,08,28,13.10
2008,10,07,08,29,16.00
2008,10,07,08,30,15.00
2008,10,07,08,31,8.30
2008,10,07,08,32,18.20
2008,10,07,08,33,19.60
2008,10,07,08,34,13.70
2008,10,07,08,35,19.30
2008,10,07,08,36,13.00
2008,10,07,08,37,13.90
2008,10,07,08,38,13.50
2008,10,07,08,39,12.30
2008,10,07,08,40,14.40
2008,10,07,08,41,15.00
2008,10,07,08,42,20.00
2008,10,07,08,43,15.00
2008,10,07,08,44,18.30
2008,10,07,08,45,15.90
2008,10,07,08,46,17.90
2008,10,07,08,47,18.10
2008,10,07,08,48,25.60
2008,10,07,08,49,16.20
2008,10,07,08,50,11.60
2008,10,07,08,51,13.50
2008,10,07,08,52,13.20
2008,10,07,08,53,10.60
2008,10,07,08,54,19.40
2008,10,07,08,55,16.70
2008,10,07,08,56,15.00
2008,10,07,08,57,11.50
2008,10,07,08,58,12.30
2008,10,07,08,59,18.70
2008,10,07,09,00,16.40
2008,10,07,09,01,19.20
2008,10,07,09,02,16.10
2008,10,07,09,03,16.50
2008,10,07,09,04,12.60
2008,10,07,09,05,16.70
2008,10,07,09,06,9.50
2008,10,07,09,07,12.90
2008,10,07,09,08,15.90
2008,10,07,09,09,18.70
2008,10,07,09,10,14.90
2008,10,07,09,11,16.00
2008,10,07,09,12,13.90
2008,10,07,09,13,15.80
2008,10,07,09,14,14.30
2008,10,07,09,15,15.70
2008,10,07,09,16,17.40
2008,10,07,09,17,14.40
2008,10,07,09,18,15.60
2008,10,07,09,19,13.90
2008,10,07,09,20,9.40
2008,10,07,09,21,22.80
2008,10,07,09,22,14.20
2008,10,07,09,23,22.20
2008,10,07,09,24,22.80
2008,10,07,09,25,14.60
2008,10,07,09,26,21.50
2008,10,07,09,27,14.90
2008,10,07,09,28,18.10
2008,10,07,09,29,18.50
2008,10,07,09,30,20.20
2008,10,07,09,31,22.10
2008,10,07,09,32,13.00
2008,10,07,09,33,17.80
2008,10,07,09,34,14.70
2008,10,07,09,35,12.30
2008,10,07,09,36,11.20
2008,10,07,09,37,11.10
2008,10,07,09,38,12.90
2008,10,07,09,39,10.20
2008,10,07,09,40,14.70
2008,10,07,09,41,26.30
2008,10,07,09,42,24.10
2008,10,07,09,43,18.80
2008,10,07,09,44,13.70
2008,10,07,09,45,9.30
2008,10,07,09,46,16.60
2008,10,07,09,47,19.90
2008,10,07,09,48,26.00
2008,10,07,09,49,22.40
2008,10,07,09,50,21.90
2008,10,07,09,51,25.20
2008,10,07,09,52,30.20
2008,10,07,09,53,30.40
2008,10,07,09,54,26.90
2008,10,07,09,55,25.80
2008,10,07,09,56,18.50
2008,10,07,09,57,24.70
2008,10,07,09,58,26.40
2008,10,07,09,59,24.10
2008,10,07,10,00,18.60
2008,10,07,10,01,18.40
2008,10,07,10,02,22.70
2008,10,07,10,03,20.40
2008,10,07,10,04,25.00
2008,10,07,10,05,22.40
2008,10,07,10,06,22.80
2008,10,07,10,07,21.80
2008,10,07,10,08,18.50
2008,10,07,10,09,20.80
2008,10,07,10,10,18.60
2008,10,07,10,11,15.90
2008,10,07,10,12,13.70
2008,10,07,10,13,15.60
2008,10,07,10,14,26.10
2008,10,07,10,15,29.10
2008,10,07,10,16,25.10
2008,10,07,10,17,22.50
2008,10,07,10,18,20.70
2008,10,07,10,19,17.00
2008,10,07,10,20,26.10
2008,10,07,10,21,17.60
2008,10,07,10,22,16.70
2008,10,07,10,23,23.10
2008,10,07,10,24,27.10
2008,10,07,10,25,26.10
2008,10,07,10,26,22.10
2008,10,07,10,27,15.70
2008,10,07,10,28,23.90
2008,10,07,10,29,28.90
2008,10,07,10,30,30.90
2008,10,07,10,31,18.60
2008,10,07,10,32,24.80
2008,10,07,10,33,24.50
2008,10,07,10,34,15.30
2008,10,07,10,35,25.70
2008,10,07,10,36,28.30
2008,10,07,10,37,22.10
2008,10,07,10,38,28.40
2008,10,07,10,39,22.70
2008,10,07,10,40,24.20
2008,10,07,10,41,30.10
2008,10,07,10,42,31.00
2008,10,07,10,43,22.30
2008,10,07,10,44,34.80
2008,10,07,10,45,28.80
2008,10,07,10,46,19.70
2008,10,07,10,47,24.30
2008,10,07,10,48,24.80
2008,10,07,10,49,29.00
2008,10,07,10,50,30.70
2008,10,07,10,51,20.70
2008,10,07,10,52,24.60
2008,10,07,10,53,22.80
2008,10,07,10,54,28.00
2008,10,07,10,55,31.30
2008,10,07,10,56,24.10
2008,10,07,10,57,22.40
2008,10,07,10,58,29.00
2008,10,07,10,59,20.60
2008,10,07,11,00,28.70
2008,10,07,11,01,22.40
2008,10,07,11,02,32.40
2008,10,07,11,03,25.70
2008,10,07,11,04,25.80
2008,10,07,11,05,33.30
2008,10,07,11,06,33.60
2008,10,07,11,07,23.80
2008,10,07,11,08,21.90
2008,10,07,11,09,23.00
2008,10,07,11,10,16.80
2008,10,07,11,11,33.00
2008,10,07,11,12,27.60
2008,10,07,11,13,25.70
2008,10,07,11,14,24.70
2008,10,07,11,15,26.40
2008,10,07,11,16,23.80
2008,10,07,11,17,19.70
2008,10,07,11,18,27.40
2008,10,07,11,19,32.20
2008,10,07,11,20,23.70
2008,10,07,11,21,18.00
2008,10,07,11,22,23.00
2008,10,07,11,23,22.20
2008,10,07,11,24,20.80
2008,10,07,11,25,23.80
2008,10,07,11,26,23.50
2008,10,07,11,27,22.20
2008,10,07,11,28,14.20
2008,10,07,11,29,17.20
2008,10,07,11,30,21.00
2008,10,07,11,31,21.60
2008,10,07,11,32,26.90
2008,10,07,11,33,26.30
2008,10,07,11,34,22.40
2008,10,07,11,35,14.30
2008,10,07,11,36,26.60
2008,10,07,11,37,22.40
2008,10,07,11,38,27.50
2008,10,07,11,39,29.10
2008,10,07,11,40,33.30
2008,10,07,11,41,25.30
2008,10,07,11,42,19.40
2008,10,07,11,43,27.80
2008,10,07,11,44,31.10
2008,10,07,11,45,23.20
2008,10,07,11,46,28.50
2008,10,07,11,47,22.00
2008,10,07,11,48,18.80
2008,10,07,11,49,21.60
2008,10,07,11,50,19.80
2008,10,07,11,51,30.90
2008,10,07,11,52,22.80
2008,10,07,11,53,30.30
2008,10,07,11,54,30.90
2008,10,07,11,55,18.80
2008,10,07,11,56,20.90
2008,10,07,11,57,15.20
2008,10,07,11,58,13.70
2008,10,07,11,59,16.80
2008,10,07,12,00,17.80
2008,10,07,12,01,16.30
2008,10,07,12,02,26.90
2008,10,07,12,03,16.60
2008,10,07,12,04,22.30
2008,10,07,12,05,22.40
2008,10,07,12,06,17.40
2008,10,07,12,07,17.40
2008,10,07,12,08,23.50
2008,10,07,12,09,28.90
2008,10,07,12,10,22.50
2008,10,07,12,11,21.90
2008,10,07,12,12,20.90
2008,10,07,12,13,20.60
2008,10,07,12,14,26.40
2008,10,07,12,15,24.70
2008,10,07,12,16,22.10
2008,10,07,12,17,33.00
2008,10,07,12,18,30.60
2008,10,07,12,19,33.10
2008,10,07,12,20,29.70
2008,10,07,12,21,26.00
2008,10,07,12,22,30.70
2008,10,07,12,23,23.90
2008,10,07,12,24,18.50
2008,10,07,12,25,23.80
2008,10,07,12,26,26.50
2008,10,07,12,27,19.60
2008,10,07,12,28,19.50
2008,10,07,12,29,21.80
2008,10,07,12,30,27.80
2008,10,07,12,31,25.30
2008,10,07,12,32,29.60
2008,10,07,12,33,24.40
2008,10,07,12,34,23.40
2008,10,07,12,35,26.40
2008,10,07,12,36,22.50
2008,10,07,12,37,23.20
2008,10,07,12,38,20.70
2008,10,07,12,39,26.60
2008,10,07,12,40,20.00
2008,10,07,12,41,20.20
2008,10,07,12,42,27.20
2008,10,07,12,43,30.60
2008,10,07,12,44,26.20
2008,10,07,12,45,22.60
2008,10,07,12,46,23.20
2008,10,07,12,47,19.30
2008,10,07,12,48,20.40
2008,10,07,12,49,29.70
2008,10,07,12,50,25.30
2008,10,07,12,51,23.20
2008,10,07,12,52,19.80
2008,10,07,12,53,17.60
2008,10,07,12,54,19.00
2008,10,07,12,55,17.70
2008,10,07,12,56,17.50
2008,10,07,12,57,22.00
2008,10,07,12,58,26.60
2008,10,07,12,59,12.30
2008,10,07,13,00,27.00
2008,10,07,13,01,26.70
2008,10,07,13,02,28.90
2008,10,07,13,03,28.40
2008,10,07,13,04,33.00
2008,10,07,13,05,33.30
2008,10,07,13,06,21.70
2008,10,07,13,07,19.90
2008,10,07,13,08,18.60
2008,10,07,13,09,13.70
2008,10,07,13,10,17.20
2008,10,07,13,11,22.30
2008,10,07,13,12,21.70
2008,10,07,13,13,16.40
2008,10,07,13,14,20.90
2008,10,07,13,15,26.50
2008,10,07,13,16,24.10
2008,10,07,13,17,19.30
2008,10,07,13,18,19.50
2008,10,07,13,19,21.70
2008,10,07,13,20,20.20
2008,10,07,13,21,20.80
2008,10,07,13,22,20.80
2008,10,07,13,23,22.30
2008,10,07,13,24,23.20
2008,10,07,13,25,19.00
2008,10,07,13,26,21.80
2008,10,07,13,27,19.50
2008,10,07,13,28,17.30
2008,10,07,13,29,24.60
2008,10,07,13,30,22.10
2008,10,07,13,31,26.90
2008,10,07,13,32,16.80
2008,10,07,13,33,20.20
2008,10,07,13,34,17.60
2008,10,07,13,35,19.00
2008,10,07,13,36,17.90
2008,10,07,13,37,19.30
2008,10,07,13,38,17.00
2008,10,07,13,39,19.30
2008,10,07,13,40,17.50
2008,10,07,13,41,20.80
2008,10,07,13,42,27.80
2008,10,07,13,43,20.10
2008,10,07,13,44,17.30
2008,10,07,13,45,19.90
2008,10,07,13,46,17.50
2008,10,07,13,47,10.80
2008,10,07,13,48,14.60
2008,10,07,13,49,17.90
2008,10,07,13,50,19.90
2008,10,07,13,51,17.70
2008,10,07,13,52,13.00
2008,10,07,13,53,10.00
2008,10,07,13,54,10.80
2008,10,07,13,55,6.10
2008,10,07,13,56,13.80
2008,10,07,13,57,8.90
2008,10,07,13,58,11.00
2008,10,07,13,59,21.50
2008,10,07,14,00,19.90
2008,10,07,14,01,23.00
2008,10,07,14,02,25.70
2008,10,07,14,03,20.70
2008,10,07,14,04,16.50
2008,10,07,14,05,23.40
2008,10,07,14,06,27.40
2008,10,07,14,07,28.50
2008,10,07,14,08,26.00
2008,10,07,14,09,17.70
2008,10,07,14,10,17.80
2008,10,07,14,11,19.10
2008,10,07,14,12,18.60
2008,10,07,14,13,15.00
2008,10,07,14,14,13.80
2008,10,07,14,15,19.20
2008,10,07,14,16,24.10
2008,10,07,14,17,19.20
2008,10,07,14,18,16.90
2008,10,07,14,19,25.30
2008,10,07,14,20,21.20
2008,10,07,14,21,18.20
2008,10,07,14,22,19.40
2008,10,07,14,23,15.00
2008,10,07,14,24,15.60
2008,10,07,14,25,21.70
2008,10,07,14,26,25.80
2008,10,07,14,27,15.20
2008,10,07,14,28,28.90
2008,10,07,14,29,34.80
2008,10,07,14,30,24.50
2008,10,07,14,31,23.00
2008,10,07,14,32,24.60
2008,10,07,14,33,30.50
2008,10,07,14,34,16.30
2008,10,07,14,35,30.00
2008,10,07,14,36,33.30
2008,10,07,14,37,19.90
2008,10,07,14,38,22.10
2008,10,07,14,39,25.50
2008,10,07,14,40,23.60
2008,10,07,14,41,19.60
2008,10,07,14,42,18.00
2008,10,07,14,43,27.50
2008,10,07,14,44,19.50
2008,10,07,14,45,26.50
2008,10,07,14,46,22.70
2008,10,07,14,47,17.30
2008,10,07,14,48,24.00
2008,10,07,14,49,21.50
2008,10,07,14,50,17.00
2008,10,07,14,51,13.80
2008,10,07,14,52,19.50
2008,10,07,14,53,19.20
2008,10,07,14,54,15.80
2008,10,07,14,55,23.10
2008,10,07,14,56,20.30
2008,10,07,14,57,20.50
2008,10,07,14,58,20.50
2008,10,07,14,59,14.90
2008,10,07,15,00,13.40
2008,10,07,15,01,9.30
2008,10,07,15,02,12.10
2008,10,07,15,03,13.60
2008,10,07,15,04,19.60
2008,10,07,15,05,8.40
2008,10,07,15,06,18.70
2008,10,07,15,07,11.40
2008,10,07,15,08,11.90
2008,10,07,15,09,15.20
2008,10,07,15,10,16.20
2008,10,07,15,11,20.20
2008,10,07,15,12,19.60
2008,10,07,15,13,15.60
2008,10,07,15,14,11.20
2008,10,07,15,15,16.80
2008,10,07,15,16,15.40
2008,10,07,15,17,13.90
2008,10,07,15,18,20.80
2008,10,07,15,19,19.40
2008,10,07,15,20,11.90
2008,10,07,15,21,12.20
2008,10,07,15,22,14.80
2008,10,07,15,23,16.60
2008,10,07,15,24,11.50
2008,10,07,15,25,15.30
2008,10,07,15,26,19.00
2008,10,07,15,27,12.70
2008,10,07,15,28,17.00
2008,10,07,15,29,14.40
2008,10,07,15,30,12.80
2008,10,07,15,31,8.50
2008,10,07,15,32,9.40
2008,10,07,15,33,11.50
2008,10,07,15,34,9.70
2008,10,07,15,35,10.50
2008,10,07,15,36,9.10
2008,10,07,15,37,9.20
2008,10,07,15,38,10.80
2008,10,07,15,39,12.50
2008,10,07,15,40,14.10
2008,10,07,15,41,14.30
2008,10,07,15,42,10.30
2008,10,07,15,43,9.00
2008,10,07,15,44,16.50
2008,10,07,15,45,12.70
2008,10,07,15,46,14.70
2008,10,07,15,47,13.20
2008,10,07,15,48,13.90
2008,10,07,15,49,14.90
2008,10,07,15,50,13.40
2008,10,07,15,51,20.20
2008,10,07,15,52,18.70
2008,10,07,15,53,15.80
2008,10,07,15,54,17.50
2008,10,07,15,55,14.30
2008,10,07,15,56,19.90
2008,10,07,15,57,18.20
2008,10,07,15,58,12.50
2008,10,07,15,59,14.40
2008,10,07,16,00,17.80
2008,10,07,16,01,14.10
2008,10,07,16,02,13.10
2008,10,07,16,03,13.20
2008,10,07,16,04,16.70
2008,10,07,16,05,11.40
2008,10,07,16,06,12.40
2008,10,07,16,07,17.30
2008,10,07,16,08,14.70
2008,10,07,16,09,11.60
2008,10,07,16,10,5.70
2008,10,07,16,11,3.80
2008,10,07,16,12,8.30
2008,10,07,16,13,13.60
2008,10,07,16,14,8.30
2008,10,07,16,15,4.20
2008,10,07,16,16,8.40
2008,10,07,16,17,5.10
2008,10,07,16,18,7.90
2008,10,07,16,19,7.70
2008,10,07,16,20,6.90
2008,10,07,16,21,7.10
2008,10,07,16,22,8.10
2008,10,07,16,23,5.00
2008,10,07,16,24,8.30
2008,10,07,16,25,10.70
2008,10,07,16,26,8.20
2008,10,07,16,27,17.00
2008,10,07,16,28,19.20
2008,10,07,16,29,15.20
2008,10,07,16,30,9.70
2008,10,07,16,31,19.80
2008,10,07,16,32,19.20
2008,10,07,16,33,23.70
2008,10,07,16,34,23.90
2008,10,07,16,35,25.60
2008,10,07,16,36,17.90
2008,10,07,16,37,17.30
2008,10,07,16,38,14.20
2008,10,07,16,39,13.80
2008,10,07,16,40,16.00
2008,10,07,16,41,19.90
2008,10,07,16,42,21.20
2008,10,07,16,43,20.10
2008,10,07,16,44,15.70
2008,10,07,16,45,13.00
2008,10,07,16,46,17.10
2008,10,07,16,47,17.40
2008,10,07,16,48,17.90
2008,10,07,16,49,19.40
2008,10,07,16,50,20.30
2008,10,07,16,51,9.40
2008,10,07,16,52,14.30
2008,10,07,16,53,13.30
2008,10,07,16,54,19.70
2008,10,07,16,55,23.10
2008,10,07,16,56,20.50
2008,10,07,16,57,19.10
2008,10,07,16,58,18.90
2008,10,07,16,59,19.40
2008,10,07,17,00,11.20
2008,10,07,17,01,15.90
2008,10,07,17,02,13.10
2008,10,07,17,03,16.20
2008,10,07,17,04,15.20
2008,10,07,17,05,13.00
2008,10,07,17,06,11.40
2008,10,07,17,07,10.80
2008,10,07,17,08,17.60
2008,10,07,17,09,12.80
2008,10,07,17,10,10.00
2008,10,07,17,11,15.80
2008,10,07,17,12,18.40
2008,10,07,17,13,16.00
2008,10,07,17,14,16.70
2008,10,07,17,15,18.10
2008,10,07,17,16,11.60
2008,10,07,17,17,12.60
2008,10,07,17,18,17.30
2008,10,07,17,19,17.40
2008,10,07,17,20,20.20
2008,10,07,17,21,19.00
2008,10,07,17,22,11.40